User: anonymous   Login
Location: Geroldsau
(48.7259°N, 8.2466°E)
Time: 00:13:18
(UTC+00:00)
Language:

MINOTAUR 4 R/B - Orbit

View from above orbital plane
View from above orbital plane
View from above satellite
View from above satellite

Ground track
Ground track

The orbit data is extracted from the following two-line orbital elements,

1 37169U 10048B   21269.39599099  .00002971  00000-0  10694-3 0  9994
2 37169  97.9730  55.4412 0007049  73.6072 286.5941 15.29475329611032
Epoch (UTC): 26 September 2021 09:30:13
Eccentricity: 0.0007049
inclination: 97.9730°
perigee height: 472 km
apogee height: 482 km
right ascension of ascending node: 55.4412°
argument of perigee: 73.6072°
revolutions per day: 15.29475329
mean anomaly at epoch: 286.5941°
orbit number at epoch: 61103

The dashed part of the orbit path shows where the satellite is in the earth's shadow,  

DLR